Regional Weather Roundup
Issued by NWS Jackson, KY

Home | Current Version | Previous Version | Graphics & Text | Print | Product List | Glossary On
Versions: 1 2 3 4 5 6 7 8 9 10 11 12 13 14 15 16 17 18 19 20 21 22 23 24 25 26 27 28 29 30 31 32 33 34 35 36 37 38 39 40 41 42 43 44 45 46 47 48 49 50
000
ASUS43 KJKL 290110
RWRJKL

EAST KENTUCKY HOURLY WEATHER ROUNDUP
NATIONAL WEATHER SERVICE JACKSON KY
900 PM EDT MON JUL 28 2014

NOTE: "FAIR" INDICATES FEW OR NO CLOUDS BELOW 12,000 FEET WITH
NO SIGNIFICANT WEATHER AND/OR OBSTRUCTIONS TO VISIBILITY.

* THESE REPORTS ARE NOT UNDER NWS QUALITY CONTROL AND MAY NOT
  REPORT WEATHER SUCH AS PRECIPITATION AND FOG.

KYZ079-080-083-085-087-088-110-112-115-119-120-290200
...EASTERN KENTUCKY...

CITY           SKY/WX    TMP DP  RH WIND       PRES   REMARKS
JACKSON        PTCLDY    65  58  78 CALM      30.00R
LONDON         PTCLDY    70  58  65 NW3       30.01R
SOMERSET*      MOCLDY    70  57  64 N3        30.02R
MONTICELLO*    CLEAR     69  63  81 N5        30.02R
MIDDLESBORO*   CLEAR     69  59  71 N3        30.00R
HARLAN APT*    PTCLDY    66  55  68 MISG      30.01R
HAZARD APT*    CLOUDY    66  59  77 NW3       30.00
PIKEVILLE APT* PTCLDY    64  59  82 NW5       29.99S
BIG SANDY*     CLEAR     66  60  81 CALM      29.99R
MOREHEAD APT*    N/A     66  59  77 W6        30.00S
$$

KYZ035-036-041-042-044-050-067-078-099-290200
...CENTRAL KENTUCKY...

CITY           SKY/WX    TMP DP  RH WIND       PRES   REMARKS
MT STERLING*   CLEAR     64  61  88 NW5       30.00S
FLEMING/MASON* PTCLDY    66  61  82 W6        29.99R
DANVILLE*      CLEAR     64  59  82 NW5       30.02R
RICHMOND*      CLEAR     66  57  72 CALM      29.99S
LEXINGTON      CLEAR     68  57  68 NW5       30.00R
FRANKFORT      CLEAR     67  57  70 NW3       29.99S
$$

KYZ091>093-OHZ055-061-077-WVZ005-015-034-035-042-290200
...SOUTHERN OHIO/WEST VIRGINIA...

CITY           SKY/WX    TMP DP  RH WIND       PRES   REMARKS
COVINGTON      PTCLDY    67  54  63 NW9       30.00R
COLUMBUS       MOCLDY    70  52  52 N9        29.94R
DAYTON         PTCLDY    64  55  72 NW10      30.00R
WILMINGTON     PTCLDY    67  54  63 NW10      29.97R
HUNTINGTON     MOCLDY    65  64  97 CALM      29.95R
CHARLESTON     MOCLDY    67  63  87 W9        29.94R
PINEVILLE*     CLOUDY    64  63  99 MISG      30.03S
BECKLEY        CLOUDY    60  56  86 W7        30.00R
BLUEFIELD      MOCLDY    63  54  72 NW9       30.02R
$$

VAZ002-007-008-TNZ017-027-036-066-071-290200
...SOUTHWEST VIRGINIA/EAST TENNESSEE...

CITY           SKY/WX    TMP DP  RH WIND       PRES   REMARKS
WISE*          PTCLDY    63  54  72 W3        30.04R
JONESVILLE*      N/A     68  59  73 CALM      30.01R
ABINGDON*      CLEAR     68  57  68 CALM      30.00R
BRISTOL        MOCLDY    69  57  65 N5        29.98R
KNOXVILLE      MOCLDY    74  59  59 NW7       29.96R
OAK RIDGE      CLOUDY    75  59  57 N5        29.99R
CROSSVILLE     CLEAR     75  59  57 NW3       30.03S
NASHVILLE      PTCLDY    77  58  51 N7        30.00R
$$

...KEY TO REMARKS...
VSB - VISIBILITY IN MILES
WCI - WIND CHILL INDEX
HX  - HEAT INDEX

$$


USA.gov is the U.S. government's official web portal to all federal, state and local government web resources and services.